Location: Newark
(45.2500°N, 7.5833°E)
Time: 12:08:08
(UTC+00:00)

Vanguard 3 - Pass Details

Date: 01 February 2020
Orbit: 508 x 3263 km, 33.3° (Epoch: 19 February)

Event Time Altitude Azimuth Distance (km) Brightness Sun altitude
Rises 11:37:58 0° 175° (S) 5,545 12.7 27.6°
Reaches altitude 10° 11:44:18 10° 153° (SSE) 5,129 12.4 27.6°
Maximum altitude 11:50:52 14° 127° (SE) 5,272 11.9 27.6°
Drops below altitude 10° 11:58:20 10° 103° (ESE) 5,989 11.7 27.5°
Sets 12:07:03 0° 83° (E) 7,224 11.9 27.3°
